Location: Lone Pine Community Mobile Home Park
(42.7367°N, 73.8567°W)
Time: 05:20:31
(UTC+00:00)

CZ-4 R/B - Pass Details

Date: 29 October 2020
Orbit: 532 x 598 km, 97.7° (Epoch: 27 November)

Event Time Altitude Azimuth Distance (km) Brightness Sun altitude
Rises 23:45:54 0° 177° (S) 2,698 4.8 -21.6°
Reaches altitude 10° 23:48:04 10° 182° (S) 1,802 3.9 -22.0°
Maximum altitude 23:51:52 53° 260° (W) 670 2.0 -22.7°
Drops below altitude 10° 23:55:39 10° 338° (NNW) 1,795 4.2 -23.4°
Sets 23:57:48 0° 343° (NNW) 2,688 5.1 -23.7°
